Powrót do katalogu

OPS 4682 DEB

AktywnyPO
NORAD 19242·DEBRIS·🇺🇸 United States

Wystrzelony Apr 3, 1965 z Vandenberg Space Force Base

Loading…

Następne Przeloty (najbliższe 24 godziny)

TLE

ŚwieżeSource: Space-Track

Epoka: Sep 14, 2026, 07:50 UTC

1 19242U 65027AS  26257.32665420 -.00000551  00000-0 -18057-2 0  9994
2 19242  90.2717  28.2853 0028238 230.7372 157.4528 13.01779178648926

Śledź OPS 4682 DEB w czasie rzeczywistym z AllMySat

Download on the App Store